Flag Weather past 2 weeks in Crailsheim, Baden-Württemberg, Germany

Now
34 °F

Fog.


Feels Like: 26 °F
Forecast: 31 / 42 °F
Wind: 10 mph from Southeast

Location: Niederstetten

Current Time: Nov 28, 2014 at 8:20:33 AM

Latest Report: Nov 28, 2014 at 7:20 AM


Visibility: 2 mi

Pressure: 29.83 "Hg

Humidity: 100%

Dew point: 34 °F

Location of CrailsheimLocation

Historic Weather in Crailsheim — Graph

°F

Crailsheim temperature yesterday

Maximum temperature yesterday: 39 °F (at 2:00 PM)
Minimum temperature yesterday: 36 °F (at 3:20 AM)
Average temperature yesterday: 37 °F

Past Weeks' High & Low Weather Summary

 TemperatureHumidityPressure
High50 °F (Nov 15, 11:20 AM)100% (Nov 13, 6:20 AM)30.30 "Hg (Nov 13, 6:20 AM)
Low30 °F (Nov 23, 6:50 AM)76% (Nov 15, 11:20 AM)29.47 "Hg (Nov 16, 3:20 AM)
Average41 °F94%29.96 "Hg
* Reported Nov 13 6:20 AM — Nov 28 6:20 AM, Crailsheim, Weather by CustomWeather, © 2014

Note: Actual official high and low records may vary slightly from our data, if they occured in-between our weather recording intervals... More about our weather records

Advertising

Crailsheim weather history for previous 24 hours

 ConditionsComfort  
Time TempWeatherWind HumidityBarometerVisibility
6:20 AM
Nov 28
34 °FFog.15 mph93%29.83 "Hg3 mi
5:20 AM34 °FLow clouds.17 mph93%29.83 "Hg4 mi
4:20 AM34 °FPassing clouds.16 mph93%29.83 "Hg4 mi
3:20 AM34 °FPassing clouds.14 mph93%29.83 "Hg4 mi
2:20 AM34 °FPassing clouds.14 mph93%29.83 "Hg4 mi
1:20 AM36 °FPassing clouds.14 mph93%29.83 "Hg4 mi
12:20 AM36 °FPartly cloudy.14 mph93%29.83 "Hg4 mi
11:20 PM
Nov 27
36 °FPassing clouds.14 mph93%29.83 "Hg4 mi
10:20 PM36 °FPassing clouds.13 mph93%29.83 "Hg4 mi
9:20 PM36 °FPartly cloudy.9 mph93%29.83 "Hg4 mi
8:20 PM37 °FPassing clouds.7 mph93%29.83 "Hg4 mi
7:20 PM37 °FPassing clouds.6 mph93%29.83 "Hg4 mi
6:20 PM37 °FPartly cloudy.9 mph93%29.80 "Hg4 mi
5:20 PM39 °FLow clouds.8 mph93%29.80 "Hg4 mi
4:20 PM39 °FLow clouds.12 mph87%29.80 "Hg5 mi
3:20 PM39 °FLow clouds.14 mph87%29.80 "Hg5 mi
2:20 PM39 °FLow clouds.12 mph87%29.80 "Hg5 mi
2:00 PM39 °FLow clouds.10 mph87%29.80 "Hg4 mi
1:20 PM37 °FLow clouds.9 mph93%29.80 "Hg4 mi
12:20 PM37 °FLow clouds.12 mph93%29.80 "Hg4 mi
11:20 AM37 °FFog.10 mph93%29.83 "Hg3 mi
10:20 AM36 °FFog.10 mph100%29.83 "Hg3 mi
9:20 AM36 °FFog.13 mph100%29.83 "Hg2 mi
8:20 AM36 °FFog.13 mph100%29.83 "Hg1 mi
Weather by CustomWeather, © 2014

See weather overviewHow to use our weather pages